Home > Time Zones > World Clock > Weather > Iran > Tabriz > Past weeks

Flag for Iran Weather past 2 weeks in Tabriz, Iran

Now
90 °F

Passing clouds.


Feels Like: 86 °F
Forecast: 75 / 94 °F
Wind: 22 mph from Southeast

Location: Tabriz Airport

Current Time: Jul 6, 2015 at 10:36:22 PM

Latest Report: Jul 6, 2015 at 10:30 PM


Visibility: 5 mi

Pressure: 29.89 "Hg (25.59 "Hg at 1388m altitude)

Humidity: 24%

Dew point: 48 °F

Location of TabrizLocation

Historic Weather in Tabriz — Graph

°F

Tabriz temperature yesterday

Maximum temperature yesterday: 97 °F (at 5:00 PM)
Minimum temperature yesterday: 72 °F (at 1:30 AM)
Average temperature yesterday: 82 °F

Past Weeks' High & Low Weather Summary

 TemperatureHumidityPressure
High102 °F (Jul 1, 6:00 PM)52% (Jun 28, 5:00 AM)30.15 "Hg (Jun 28, 5:00 AM)
Low63 °F (Jun 28, 6:30 AM)9% (Jun 28, 8:00 PM)29.68 "Hg (Jun 25, 6:30 PM)
Average83 °F27%29.94 "Hg
* Reported Jun 21 9:30 PM — Jul 6 9:30 PM, Tabriz, Weather by CustomWeather, © 2015

Note: Actual official high and low records may vary slightly from our data, if they occured in-between our weather recording intervals... More about our weather records

Advertising

Tabriz weather history for previous 24 hours

 ConditionsComfort  
Time TempWeatherWind HumidityBarometerVisibility
9:30 PM
Mon, Jul 6
91 °FScattered showers. Scattered clouds.24 mph21%29.89 "Hg5 mi
9:00 PM91 °FScattered clouds.18 mph20%29.86 "Hg5 mi
8:30 PM93 °FScattered clouds.14 mph19%29.86 "Hg5 mi
8:00 PM91 °FScattered showers. Scattered clouds.18 mph20%29.89 "Hg5 mi
7:30 PM91 °FScattered showers. Scattered clouds.22 mph20%29.86 "Hg5 mi
7:00 PM91 °FScattered clouds.22 mph23%29.86 "Hg5 mi
6:30 PM97 °FScattered showers. Scattered clouds.16 mph17%29.86 "Hg5 mi
6:00 PM95 °FScattered showers. Scattered clouds.22 mph16%29.86 "HgN/A
5:30 PM99 °FScattered clouds.22 mph14%29.86 "HgN/A
5:00 PM99 °FScattered clouds.7 mph17%29.86 "HgN/A
4:30 PM100 °FScattered clouds.5 mph17%29.86 "HgN/A
4:00 PM100 °FScattered clouds.5 mph17%29.86 "HgN/A
3:30 PM99 °FScattered clouds.9 mph17%29.86 "HgN/A
3:00 PM100 °FScattered clouds.7 mph16%29.86 "HgN/A
2:30 PM100 °FScattered clouds.5 mph16%29.89 "HgN/A
2:00 PM99 °FScattered clouds.5 mph16%29.89 "HgN/A
1:30 PM97 °FScattered clouds.7 mph18%29.92 "HgN/A
1:00 PM95 °FScattered clouds.9 mph16%29.92 "HgN/A
12:30 PM95 °FScattered clouds.14 mph20%29.92 "HgN/A
12:00 PM91 °FScattered clouds.5 mph23%29.95 "HgN/A
11:30 AM91 °FScattered clouds.12 mph23%29.95 "HgN/A
11:00 AM91 °FScattered clouds.12 mph23%29.95 "HgN/A
10:30 AM88 °FScattered clouds.12 mph27%29.95 "HgN/A
10:00 AM86 °FScattered clouds.14 mph29%29.98 "HgN/A
9:30 AM82 °FScattered clouds.14 mph32%29.98 "HgN/A
9:00 AM81 °FPartly sunny.18 mph32%29.98 "HgN/A
8:30 AM79 °FPartly sunny.14 mph34%29.98 "HgN/A
8:00 AM79 °FPartly sunny.12 mph34%29.98 "HgN/A
7:30 AM79 °FPassing clouds.16 mph34%29.98 "HgN/A
7:00 AM79 °FPassing clouds.12 mph32%29.98 "HgN/A
6:30 AM79 °FPassing clouds.14 mph34%29.98 "HgN/A
6:00 AM79 °FPassing clouds.14 mph34%29.98 "HgN/A
5:30 AM79 °FPassing clouds.14 mph34%29.95 "HgN/A
5:00 AM79 °FPassing clouds.7 mph34%29.95 "HgN/A
4:20 AM79 °FPassing clouds.12 mph34%29.98 "HgN/A
4:00 AM79 °FPassing clouds.7 mph34%29.98 "HgN/A
3:30 AM79 °FPassing clouds.16 mph34%29.98 "HgN/A
3:00 AM81 °FPassing clouds.9 mph32%29.98 "HgN/A
2:30 AM81 °FPassing clouds.18 mph30%29.98 "HgN/A
2:00 AM82 °FPassing clouds.18 mph28%29.98 "HgN/A
1:30 AM81 °FPassing clouds.16 mph32%30.01 "HgN/A
1:00 AM81 °FPassing clouds.14 mph32%30.01 "HgN/A
12:30 AM82 °FPassing clouds.16 mph28%30.01 "HgN/A
12:00 AM82 °FClear.12 mph30%30.01 "Hg10 mi
11:30 PM
Sun, Jul 5
84 °FPassing clouds.16 mph29%30.01 "HgN/A
11:00 PM84 °FClear.9 mph29%30.01 "Hg10 mi
10:30 PM84 °FClear.9 mph27%30.01 "Hg10 mi
10:00 PM84 °FSunny.7 mph27%30.01 "Hg10 mi
Weather by CustomWeather, © 2015

See weather overviewHow to use our weather pages